Zurück zum Katalog

INTELSAT 4A-F1

AktivKommunikationGEO
NORAD 8330·PAYLOAD· XX

Gestartet Sep 26, 1975 von Cape Canaveral Space Force Station

Loading…

TLE

AktuellSource: Space-Track

Epoche: Sep 14, 2026, 18:16 UTC

1 08330U 75091A   26257.76123421  .00000104  00000-0  00000-0 0  9999
2 08330   7.6845 303.7113 0006077 265.8789 278.1113  0.99925359122367

Verfolge INTELSAT 4A-F1 in Echtzeit mit AllMySat

Download on the App Store